DLH9815 EDDM-LIMF

Flight info

Callsign DLH9815
Flight time N/A
Altitude 38000
Route ALG2E ALG Y109 UMTEX Y100 TRA DCT DITON DCT BASGO DCT AKASU DCT NELAB DCT LIMF STAY1/0050
Aircraft A321/M-DE2E3FGIJ1LORVWXYZ/HB2

Departure

Time N/A
Airport Munich Airport (EDDM)

Arrival

Time 2026-05-04 14:36
Airport Turin Airport (LIMF)
Time Latitude Longitude Altitude Speed Heading
2026-05-04 13:07 48.00836 11.58130 27221 ft 359 kts 264°
2026-05-04 13:07 48.00670 11.54385 27749 ft 362 kts 264°
2026-05-04 13:07 48.00499 11.50679 28300 ft 364 kts 264°
2026-05-04 13:08 48.00321 11.46905 28852 ft 366 kts 264°
2026-05-04 13:08 48.00136 11.43049 29377 ft 368 kts 264°
2026-05-04 13:08 47.99954 11.39273 29889 ft 371 kts 264°
2026-05-04 13:08 47.99767 11.35419 30332 ft 373 kts 264°
2026-05-04 13:09 47.99580 11.31552 30766 ft 376 kts 264°
2026-05-04 13:09 47.99390 11.27651 31207 ft 378 kts 264°
2026-05-04 13:09 47.99196 11.23718 31650 ft 380 kts 264°
2026-05-04 13:09 47.99001 11.19770 32096 ft 382 kts 264°
2026-05-04 13:10 47.98805 11.15813 32535 ft 384 kts 264°
2026-05-04 13:10 47.98610 11.11923 32932 ft 386 kts 264°
2026-05-04 13:10 47.98382 11.07929 33410 ft 386 kts 263°
2026-05-04 13:10 47.98144 11.03912 33787 ft 390 kts 265°
2026-05-04 13:11 47.98176 10.99811 33988 ft 399 kts 270°
2026-05-04 13:11 47.98304 10.95624 34120 ft 408 kts 271°
2026-05-04 13:11 47.98446 10.91442 34241 ft 417 kts 271°
2026-05-04 13:11 47.98584 10.87081 34391 ft 423 kts 270°
2026-05-04 13:12 47.98667 10.82688 34643 ft 425 kts 269°
2026-05-04 13:12 47.98738 10.78309 35190 ft 421 kts 270°
2026-05-04 13:12 47.98875 10.73937 35523 ft 423 kts 270°
2026-05-04 13:12 47.98990 10.69545 35829 ft 423 kts 270°
2026-05-04 13:13 47.99038 10.65215 36309 ft 420 kts 270°
2026-05-04 13:13 47.99194 10.60858 36682 ft 421 kts 271°
2026-05-04 13:13 47.99313 10.56481 36958 ft 422 kts 270°
2026-05-04 13:13 47.99383 10.52103 37285 ft 422 kts 269°
2026-05-04 13:14 47.99416 10.49205 37512 ft 422 kts 269°
2026-05-04 13:14 47.99473 10.43409 37915 ft 422 kts 269°
2026-05-04 13:14 47.99522 10.39031 37981 ft 422 kts 269°
2026-05-04 13:15 47.99627 10.31801 37983 ft 421 kts 269°
2026-05-04 13:15 47.98955 10.23197 38006 ft 418 kts 252°
2026-05-04 13:16 47.96974 10.15072 38006 ft 416 kts 248°
2026-05-04 13:16 47.94951 10.07046 37999 ft 416 kts 248°
2026-05-04 13:17 47.92919 9.98971 37993 ft 416 kts 249°
2026-05-04 13:17 47.90884 9.90893 37994 ft 416 kts 248°
2026-05-04 13:18 47.88844 9.82808 37992 ft 417 kts 249°
2026-05-04 13:18 47.86819 9.74711 38000 ft 418 kts 249°
2026-05-04 13:19 47.84803 9.66601 37996 ft 418 kts 249°
2026-05-04 13:19 47.83249 9.58266 37992 ft 420 kts 258°
2026-05-04 13:20 47.82235 9.49716 37975 ft 420 kts 258°
2026-05-04 13:20 47.81201 9.41152 37988 ft 420 kts 258°
2026-05-04 13:21 47.80165 9.32645 37986 ft 421 kts 258°
2026-05-04 13:21 47.79123 9.24087 38001 ft 420 kts 258°
2026-05-04 13:22 47.78074 9.15536 37993 ft 420 kts 258°
2026-05-04 13:22 47.77007 9.06965 37997 ft 420 kts 258°
2026-05-04 13:23 47.75950 8.98488 37998 ft 420 kts 257°
2026-05-04 13:23 47.74878 8.89953 37998 ft 419 kts 257°
2026-05-04 13:24 47.73803 8.81479 38008 ft 419 kts 257°
2026-05-04 13:24 47.72716 8.72937 38008 ft 419 kts 257°
2026-05-04 13:25 47.71080 8.60175 38010 ft 419 kts 257°
2026-05-04 13:25 47.69634 8.51839 38003 ft 416 kts 243°
2026-05-04 13:26 47.68172 8.48271 38006 ft 414 kts 231°
2026-05-04 13:26 47.66156 8.45234 38009 ft 414 kts 219°
2026-05-04 13:26 47.63721 8.42954 37997 ft 416 kts 206°
2026-05-04 13:26 47.60986 8.41552 37997 ft 418 kts 194°
2026-05-04 13:27 47.55247 8.40003 37994 ft 420 kts 193°
2026-05-04 13:27 47.49583 8.38495 37993 ft 420 kts 193°
2026-05-04 13:28 47.43807 8.36955 37996 ft 421 kts 192°
2026-05-04 13:28 47.38073 8.35425 37999 ft 421 kts 193°
2026-05-04 13:29 47.32407 8.33922 37996 ft 421 kts 192°
2026-05-04 13:29 47.26635 8.33827 37991 ft 426 kts 177°
2026-05-04 13:30 47.20722 8.34666 37996 ft 427 kts 178°
2026-05-04 13:30 47.15018 8.35429 37996 ft 427 kts 178°
2026-05-04 13:31 47.09156 8.36216 37999 ft 427 kts 178°
2026-05-04 13:31 47.03243 8.37022 38012 ft 427 kts 178°
2026-05-04 13:32 46.97518 8.37800 38019 ft 427 kts 178°
2026-05-04 13:32 46.91568 8.38610 38017 ft 427 kts 178°
2026-05-04 13:33 46.85646 8.39415 37984 ft 428 kts 178°
2026-05-04 13:33 46.79715 8.40219 38000 ft 428 kts 178°
2026-05-04 13:34 46.73779 8.41027 38032 ft 428 kts 178°
2026-05-04 13:34 46.67879 8.41820 38031 ft 429 kts 178°
2026-05-04 13:35 46.58963 8.43015 38053 ft 430 kts 178°
2026-05-04 13:36 46.53008 8.43799 38074 ft 430 kts 178°
2026-05-04 13:36 46.47042 8.44594 38093 ft 431 kts 178°
2026-05-04 13:37 46.41069 8.45393 38107 ft 431 kts 178°
2026-05-04 13:37 46.35092 8.46190 38108 ft 431 kts 178°
2026-05-04 13:38 46.29124 8.46983 38128 ft 431 kts 178°
2026-05-04 13:38 46.23157 8.47791 38110 ft 430 kts 178°
2026-05-04 13:39 46.17190 8.48650 38116 ft 432 kts 177°
2026-05-04 13:39 46.11202 8.49392 38118 ft 430 kts 183°
2026-05-04 13:40 46.05279 8.48499 38116 ft 428 kts 190°
2026-05-04 13:40 45.99403 8.47386 38126 ft 430 kts 190°
2026-05-04 13:41 45.93466 8.46294 38136 ft 430 kts 190°
2026-05-04 13:41 45.87525 8.45200 38142 ft 431 kts 190°
2026-05-04 13:42 45.78587 8.43556 38143 ft 432 kts 191°
2026-05-04 13:42 45.72621 8.42466 38146 ft 433 kts 191°
2026-05-04 13:43 45.66646 8.41362 38150 ft 433 kts 191°
2026-05-04 13:43 45.63696 8.40582 37420 ft 432 kts 199°
2026-05-04 13:43 45.60876 8.39119 36426 ft 431 kts 208°
2026-05-04 13:44 45.58236 8.37089 35491 ft 432 kts 212°
2026-05-04 13:44 45.55611 8.34995 34577 ft 433 kts 211°
2026-05-04 13:44 45.52978 8.32912 33600 ft 434 kts 211°
2026-05-04 13:44 45.50331 8.30832 32461 ft 436 kts 210°
2026-05-04 13:45 45.47662 8.28743 31246 ft 440 kts 210°
2026-05-04 13:45 45.44966 8.26643 29960 ft 444 kts 209°
2026-05-04 13:45 45.42241 8.24528 28451 ft 448 kts 209°
2026-05-04 13:45 45.39505 8.22405 26981 ft 442 kts 209°
2026-05-04 13:46 45.36842 8.20341 25079 ft 431 kts 208°
2026-05-04 13:46 45.34247 8.18325 23245 ft 421 kts 208°
2026-05-04 13:46 45.31709 8.16350 21295 ft 410 kts 208°
2026-05-04 13:46 45.29243 8.14430 19512 ft 397 kts 209°
2026-05-04 13:47 45.26863 8.12582 17804 ft 385 kts 209°
2026-05-04 13:47 45.24554 8.10794 16077 ft 372 kts 209°
2026-05-04 13:47 45.22318 8.09063 14473 ft 360 kts 209°
2026-05-04 13:47 45.20116 8.07356 13129 ft 364 kts 208°
2026-05-04 13:48 45.17935 8.05666 12651 ft 349 kts 208°
2026-05-04 13:48 45.15835 8.04045 12018 ft 339 kts 208°
2026-05-04 13:48 45.13786 8.02470 11398 ft 332 kts 207°
2026-05-04 13:48 45.11842 8.00973 11067 ft 300 kts 207°
2026-05-04 13:49 45.10101 7.99628 10642 ft 273 kts 207°
2026-05-04 13:49 45.08498 7.98389 10208 ft 261 kts 206°
2026-05-04 13:49 45.06917 7.97172 10002 ft 251 kts 206°
2026-05-04 13:49 45.05411 7.96019 9845 ft 248 kts 206°
2026-05-04 13:50 45.03892 7.94857 9714 ft 248 kts 206°
2026-05-04 13:50 45.02372 7.93694 9582 ft 248 kts 206°
2026-05-04 13:50 45.00853 7.92531 9451 ft 248 kts 206°
2026-05-04 13:50 44.99332 7.91370 9318 ft 248 kts 206°
2026-05-04 13:51 44.97812 7.90209 9182 ft 248 kts 206°
2026-05-04 13:51 44.96308 7.89059 8821 ft 243 kts 206°
2026-05-04 13:51 44.94858 7.87819 8206 ft 246 kts 217°
2026-05-04 13:51 44.93771 7.85972 7814 ft 244 kts 238°
2026-05-04 13:52 44.93281 7.81386 7140 ft 237 kts 279°
2026-05-04 13:52 44.93642 7.79134 6755 ft 235 kts 281°
2026-05-04 13:52 44.94000 7.76890 6329 ft 234 kts 281°
2026-05-04 13:53 44.94353 7.74657 5963 ft 230 kts 281°
2026-05-04 13:53 44.94695 7.72486 5650 ft 224 kts 281°
2026-05-04 13:53 44.95032 7.70349 5274 ft 222 kts 282°
2026-05-04 13:54 44.96013 7.66268 4508 ft 218 kts 306°
2026-05-04 13:54 44.97065 7.64774 4177 ft 213 kts 326°
2026-05-04 13:54 44.99839 7.63681 4000 ft 212 kts
2026-05-04 13:55 45.01317 7.63776 4006 ft 213 kts
2026-05-04 13:55 45.04238 7.63960 3816 ft 199 kts
2026-05-04 13:55 45.05594 7.64046 3596 ft 191 kts
2026-05-04 13:56 45.06916 7.64129 3356 ft 189 kts
2026-05-04 13:56 45.08225 7.64212 3106 ft 188 kts
2026-05-04 13:56 45.10818 7.64376 2605 ft 187 kts
2026-05-04 13:57 45.12058 7.64465 2395 ft 168 kts
2026-05-04 13:57 45.13159 7.64539 2193 ft 149 kts
2026-05-04 13:58 45.15977 7.64709 1591 ft 126 kts 359°
2026-05-04 13:58 45.17706 7.64818 1308 ft 123 kts
2026-05-04 13:58 45.18561 7.64873 1083 ft 124 kts 359°
2026-05-04 13:59 45.19397 7.64917 985 ft 110 kts
2026-05-04 13:59 45.20121 7.64967 990 ft 121 kts
2026-05-04 13:59 45.22537 7.65137 2443 ft 201 kts
2026-05-04 14:00 45.23911 7.65230 3359 ft 196 kts
2026-05-04 14:00 45.26635 7.65870 4040 ft 206 kts 36°
2026-05-04 14:00 45.27422 7.67524 4073 ft 206 kts 73°
2026-05-04 14:01 45.27406 7.69539 4100 ft 209 kts 106°
2026-05-04 14:01 45.26587 7.71217 4062 ft 209 kts 135°
2026-05-04 14:01 45.24483 7.74082 4069 ft 210 kts 136°
2026-05-04 14:02 45.23415 7.75496 3968 ft 210 kts 136°
2026-05-04 14:02 45.22178 7.76573 3940 ft 212 kts 164°
2026-05-04 14:02 45.20704 7.76590 3963 ft 214 kts 185°
2026-05-04 14:02 45.19221 7.76417 4053 ft 213 kts 184°
2026-05-04 14:03 45.18244 7.76318 4214 ft 212 kts 183°
2026-05-04 14:03 45.16770 7.76192 4404 ft 212 kts 182°
2026-05-04 14:03 45.15300 7.76050 4635 ft 212 kts 182°
2026-05-04 14:03 45.13831 7.75886 4874 ft 211 kts 184°
2026-05-04 14:04 45.10913 7.75527 5007 ft 209 kts 183°
2026-05-04 14:04 45.09467 7.75339 5003 ft 209 kts 183°
2026-05-04 14:04 45.08021 7.75162 5006 ft 209 kts 183°
2026-05-04 14:05 45.05167 7.74790 4337 ft 206 kts 183°
2026-05-04 14:05 45.03730 7.74607 4013 ft 208 kts 183°
2026-05-04 14:05 45.02279 7.74430 3996 ft 206 kts 183°
2026-05-04 14:06 45.00897 7.74136 3995 ft 199 kts 199°
2026-05-04 14:06 44.99768 7.73067 3998 ft 197 kts 229°
2026-05-04 14:06 44.99181 7.71347 4004 ft 196 kts 261°
2026-05-04 14:06 44.99125 7.69430 4007 ft 195 kts 272°
2026-05-04 14:07 44.99347 7.67562 4002 ft 193 kts 290°
2026-05-04 14:07 44.99988 7.65923 4003 ft 191 kts 310°
2026-05-04 14:07 45.00961 7.64701 3966 ft 190 kts 329°
2026-05-04 14:07 45.02183 7.64001 3992 ft 191 kts 348°
2026-05-04 14:08 45.03504 7.63906 3915 ft 190 kts
2026-05-04 14:08 45.04820 7.63993 3718 ft 189 kts
2026-05-04 14:08 45.06128 7.64079 3499 ft 188 kts
2026-05-04 14:08 45.07429 7.64162 3261 ft 187 kts
2026-05-04 14:09 45.10016 7.64325 2760 ft 181 kts
2026-05-04 14:09 45.11208 7.64400 2529 ft 163 kts
2026-05-04 14:10 45.13235 7.64523 2103 ft 134 kts
2026-05-04 14:10 45.14153 7.64590 1917 ft 131 kts
2026-05-04 14:10 45.15055 7.64646 1794 ft 129 kts
2026-05-04 14:10 45.15941 7.64707 1604 ft 126 kts 359°
2026-05-04 14:11 45.16816 7.64752 1449 ft 124 kts 359°
2026-05-04 14:11 45.18530 7.64869 1068 ft 128 kts
2026-05-04 14:11 45.19407 7.64916 985 ft 115 kts
2026-05-04 14:12 45.20205 7.64973 989 ft 139 kts
2026-05-04 14:12 45.21382 7.65040 1586 ft 188 kts
2026-05-04 14:12 45.24218 7.65136 3585 ft 210 kts
2026-05-04 14:13 45.25689 7.65222 3895 ft 212 kts
2026-05-04 14:13 45.26964 7.66102 3998 ft 211 kts 43°
2026-05-04 14:13 45.27717 7.67931 4046 ft 213 kts 76°
2026-05-04 14:13 45.27612 7.69995 4024 ft 213 kts 110°
2026-05-04 14:14 45.26733 7.71679 4020 ft 214 kts 135°
2026-05-04 14:14 45.24583 7.74651 4022 ft 216 kts 134°
2026-05-04 14:14 45.23508 7.76129 4014 ft 215 kts 135°
2026-05-04 14:15 45.20699 7.77226 4016 ft 218 kts 181°
2026-05-04 14:15 45.17663 7.76935 4011 ft 219 kts 184°
2026-05-04 14:16 45.14633 7.76630 4011 ft 219 kts 184°
2026-05-04 14:16 45.13114 7.76473 4011 ft 219 kts 184°
2026-05-04 14:17 45.10095 7.76165 4003 ft 216 kts 183°
2026-05-04 14:17 45.08599 7.76013 4000 ft 216 kts 184°
2026-05-04 14:17 45.05616 7.75699 4001 ft 217 kts 184°
2026-05-04 14:18 45.04088 7.75524 3997 ft 218 kts 183°
2026-05-04 14:18 45.01223 7.74413 3990 ft 219 kts 220°
2026-05-04 14:19 45.00099 7.70562 3995 ft 218 kts 271°
2026-05-04 14:19 45.00325 7.68463 3997 ft 215 kts 289°
2026-05-04 14:19 45.01004 7.66601 3997 ft 214 kts 308°
2026-05-04 14:19 45.02059 7.65146 3958 ft 212 kts 325°
2026-05-04 14:20 45.03366 7.64242 3908 ft 213 kts 343°
2026-05-04 14:20 45.04815 7.63994 3714 ft 206 kts
2026-05-04 14:20 45.06162 7.64081 3490 ft 182 kts
2026-05-04 14:21 45.08436 7.64224 3043 ft 145 kts
2026-05-04 14:21 45.09403 7.64285 2858 ft 136 kts
2026-05-04 14:21 45.10333 7.64345 2675 ft 133 kts
2026-05-04 14:21 45.11257 7.64403 2498 ft 132 kts
2026-05-04 14:22 45.12171 7.64461 2320 ft 131 kts
2026-05-04 14:22 45.13081 7.64519 2141 ft 131 kts
2026-05-04 14:22 45.13986 7.64576 1966 ft 130 kts
2026-05-04 14:22 45.14883 7.64633 1806 ft 127 kts
2026-05-04 14:23 45.16648 7.64760 1480 ft 126 kts 359°
2026-05-04 14:23 45.17512 7.64814 1313 ft 123 kts 359°
2026-05-04 14:23 45.18375 7.64856 1107 ft 123 kts 360°
2026-05-04 14:24 45.19224 7.64914 993 ft 117 kts
2026-05-04 14:24 45.19967 7.64958 980 ft 104 kts
2026-05-04 14:24 45.20952 7.65045 1379 ft 165 kts
2026-05-04 14:24 45.22188 7.65130 2509 ft 188 kts
2026-05-04 14:25 45.23555 7.65164 3524 ft 212 kts
2026-05-04 14:25 45.26833 7.65431 4154 ft 230 kts 21°
2026-05-04 14:25 45.27999 7.66816 4064 ft 216 kts 58°
2026-05-04 14:26 45.28483 7.68757 4034 ft 207 kts 82°
2026-05-04 14:26 45.28406 7.70782 4020 ft 207 kts 105°
2026-05-04 14:26 45.27775 7.72604 3949 ft 208 kts 129°
2026-05-04 14:26 45.26750 7.74074 4028 ft 209 kts 134°
2026-05-04 14:27 45.25711 7.75515 4014 ft 209 kts 134°
2026-05-04 14:27 45.24675 7.76961 4011 ft 209 kts 133°
2026-05-04 14:27 45.23631 7.78409 4014 ft 213 kts 136°
2026-05-04 14:27 45.22428 7.79641 4002 ft 216 kts 158°
2026-05-04 14:28 45.20940 7.79945 4010 ft 218 kts 179°
2026-05-04 14:28 45.19425 7.79887 4010 ft 217 kts 182°
2026-05-04 14:28 45.17914 7.79786 4006 ft 218 kts 182°
2026-05-04 14:28 45.16399 7.79669 4009 ft 219 kts 182°
2026-05-04 14:29 45.13374 7.79438 4007 ft 218 kts 182°
2026-05-04 14:29 45.10368 7.79194 3994 ft 217 kts 182°
2026-05-04 14:30 45.08839 7.79057 3999 ft 217 kts 182°
2026-05-04 14:30 45.07327 7.78917 3996 ft 218 kts 182°
2026-05-04 14:30 45.04393 7.78187 3997 ft 218 kts 211°
2026-05-04 14:31 45.03340 7.76680 3992 ft 218 kts 242°
2026-05-04 14:31 45.03012 7.72529 3994 ft 216 kts 272°
2026-05-04 14:32 45.03275 7.68322 3863 ft 213 kts 290°
2026-05-04 14:32 45.03960 7.66486 3771 ft 210 kts 309°
2026-05-04 14:32 45.04981 7.65143 3612 ft 193 kts 328°
2026-05-04 14:32 45.06169 7.64373 3460 ft 185 kts 346°
2026-05-04 14:33 45.07426 7.64161 3226 ft 181 kts
2026-05-04 14:33 45.08665 7.64244 2988 ft 180 kts
2026-05-04 14:33 45.09913 7.64320 2761 ft 178 kts
2026-05-04 14:33 45.11094 7.64394 2546 ft 163 kts
2026-05-04 14:34 45.12185 7.64462 2320 ft 151 kts
2026-05-04 14:34 45.13197 7.64526 2134 ft 139 kts
2026-05-04 14:34 45.14141 7.64585 1942 ft 132 kts
2026-05-04 14:34 45.15044 7.64657 1758 ft 128 kts
2026-05-04 14:35 45.15926 7.64740 1614 ft 128 kts
2026-05-04 14:35 45.16807 7.64765 1457 ft 125 kts 356°
2026-05-04 14:35 45.17673 7.64809 1291 ft 125 kts 360°
2026-05-04 14:35 45.18537 7.64864 1080 ft 123 kts 358°
2026-05-04 14:36 45.19369 7.64924 991 ft 109 kts 359°
2026-05-04 14:36 45.19959 7.64954 980 ft 55 kts
2026-05-04 14:36 45.20134 7.64959 984 ft 18 kts 346°
2026-05-04 14:36 45.20198 7.64846 989 ft 14 kts 271°
2026-05-04 14:37 45.20175 7.64729 992 ft 10 kts 224°
2026-05-04 14:37 45.20093 7.64697 988 ft 14 kts 182°
2026-05-04 14:37 45.19979 7.64690 991 ft 19 kts 182°
2026-05-04 14:37 45.19836 7.64681 986 ft 21 kts 182°
2026-05-04 14:38 45.19769 7.64690 986 ft 8 kts 165°
2026-05-04 14:38 45.19722 7.64669 988 ft 8 kts 248°
2026-05-04 14:38 45.19706 7.64581 990 ft 11 kts 256°
2026-05-04 14:38 45.19655 7.64539 989 ft 10 kts 186°
2026-05-04 14:39 45.19575 7.64536 988 ft 11 kts 183°
2026-05-04 14:39 45.19513 7.64534 986 ft 7 kts 166°
2026-05-04 14:39 45.19494 7.64571 992 ft 2 kts 100°
2026-05-04 14:40 45.19493 7.64592 986 ft 0 kts 94°